Location: Dos Palmas
(32.4468°N, 116.8732°W)
Time: 01:27:20
(UTC+00:00)

Meteor 1-24 Rocket - Pass Details

Date: 23 October 2021
Orbit: 790 x 927 km, 81.3° (Epoch: 07 December)

Event Time Altitude Azimuth Distance (km) Brightness Sun altitude
Rises 12:41:29 0° 166° (SSE) 3,270 7.0 -16.7°
Reaches altitude 10° 12:43:58 10° 158° (SSE) 2,347 6.3 -16.2°
Maximum altitude 12:48:48 38° 92° (E) 1,208 5.2 -15.2°
Drops below altitude 10° 12:53:44 10° 26° (NNE) 2,399 6.3 -14.2°
Sets 12:56:18 0° 18° (NNE) 3,351 7.0 -13.6°
